Theta_e
337 336 335 335 335 337 337 338 339 339 340 341 343 344 346 349 351 351 350 350 349 349 350 350 349 349 348 348 349 349 348 346 343 341 339 337 338 334 335 337 335 335 336 333 333 334 339 339 336 338 339 340 339 339 340 340 338 340 338 340 344 344 342
336 336 335 336 336 337 338 338 339 340 340 342 343 346 349 350 350 349 349 349 349 349 351 351 351 349 349 349 348 347 343 343 349 348 343 344 345 344 337 334 333 332 334 337 335 337 337 338 337 337 337 338 338 338 337 339 339 338 339 340 339 338 337
337 337 336 336 336 337 338 339 339 341 341 341 342 345 348 349 349 348 348 349 348 348 350 350 351 348 345 341 339 338 337 336 335 337 339 339 340 338 339 340 337 337 340 339 336 337 341 338 339 339 337 338 336 337 338 338 340 341 340 339 338 337 336
336 337 337 337 338 338 339 340 340 341 342 341 342 345 347 349 348 348 348 348 347 347 346 345 346 342 339 340 337 336 337 339 337 335 337 338 338 341 337 336 337 340 333 335 337 339 340 336 336 339 348 336 337 339 338 339 340 340 340 338 337 337 336
336 338 338 338 338 338 339 339 340 340 341 343 344 347 348 348 347 347 346 346 345 343 343 342 342 339 339 340 338 336 337 338 338 338 337 340 342 338 337 339 337 335 332 335 340 341 336 335 335 336 337 338 337 338 338 336 337 339 337 337 335 339 339
336 337 337 338 339 339 340 341 340 341 342 342 343 344 346 345 346 345 344 344 340 340 340 340 339 341 337 340 341 340 339 339 337 339 336 339 336 334 336 335 337 337 333 334 341 335 336 335 336 337 335 336 336 336 336 336 337 337 337 337 336 337 338
337 338 338 339 339 340 341 342 341 342 342 343 343 344 344 343 343 342 341 339 340 338 338 338 339 338 337 340 338 339 334 335 334 335 340 339 339 338 337 336 344 333 335 337 337 337 333 335 335 336 337 337 341 337 335 334 336 336 338 336 335 334 335
338 338 339 340 340 341 341 341 339 341 342 340 339 340 339 340 341 339 339 338 336 339 339 336 338 339 339 340 338 336 334 335 338 338 338 339 338 340 338 336 333 336 338 334 335 336 337 337 339 339 337 336 336 336 335 335 334 336 338 335 334 334 339
338 339 339 339 339 339 338 336 337 338 337 336 336 335 335 337 338 338 338 336 336 338 338 337 339 340 339 337 335 335 336 339 339 338 339 337 338 338 338 336 336 342 336 335 334 339 338 339 339 339 338 337 337 336 336 336 336 337 336 335 334 333 335
337 337 338 338 338 337 334 335 335 335 333 333 332 331 333 334 335 337 336 335 335 336 339 340 340 339 337 338 337 336 337 338 338 340 338 338 338 338 337 340 337 342 337 338 338 339 342 340 339 339 337 337 337 336 335 335 335 335 335 335 334 334 334
337 337 337 336 334 333 332 333 333 332 332 331 330 330 332 332 333 335 335 335 335 335 340 340 340 339 338 338 339 337 337 337 338 339 338 339 339 339 339 339 339 342 339 339 338 339 338 339 340 337 336 338 336 335 334 335 335 335 335 335 336 335 334
335 335 335 334 332 331 331 332 332 331 330 331 329 331 331 332 333 334 334 336 336 337 340 340 340 339 340 339 338 338 339 340 340 338 338 340 341 341 340 341 339 338 340 340 336 336 337 336 335 339 337 336 336 335 335 335 335 335 334 335 335 335 335
333 334 334 332 331 330 330 330 329 329 331 331 330 330 331 331 332 332 334 337 338 339 340 340 340 339 339 339 337 338 338 340 340 339 338 340 340 341 340 339 340 338 337 340 338 336 336 336 335 337 337 337 337 337 337 337 336 335 335 335 334 334 334
336 332 333 330 329 328 329 329 328 328 330 331 331 330 331 332 332 332 336 338 338 339 340 341 340 339 338 339 339 337 340 339 339 340 341 342 341 340 340 339 338 338 338 341 337 336 336 336 337 337 337 337 336 336 337 336 336 336 335 335 335 334 334
330 330 330 330 328 328 328 328 328 329 330 331 331 330 331 331 331 333 338 339 339 340 340 341 339 339 338 337 339 338 338 340 342 340 343 342 339 338 338 339 338 338 337 338 338 342 339 338 338 337 337 337 336 336 337 337 337 337 337 336 335 335 334
329 329 329 330 329 328 328 328 329 330 331 332 330 330 331 331 331 334 338 338 339 340 341 340 338 339 339 337 339 339 339 341 342 341 339 337 338 338 338 337 337 338 337 337 337 336 339 337 338 337 337 336 336 336 337 338 338 345 348 344 341 337 335
329 330 330 331 329 328 328 329 330 330 331 333 331 330 331 332 333 334 339 339 339 339 342 340 338 338 340 338 340 341 341 340 340 340 339 338 337 338 337 337 337 337 336 336 336 336 336 339 334 334 335 334 334 333 335 336 338 344 338 339 338 335 332
329 329 330 331 331 329 329 329 329 330 331 334 333 332 333 333 334 334 339 340 340 340 343 341 340 338 340 339 341 341 340 339 339 339 339 338 337 337 337 338 337 336 335 335 335 336 336 334 334 334 334 335 334 333 334 335 342 334 337 337 337 336 335
329 328 330 331 332 331 330 330 332 334 335 337 338 336 336 337 337 334 339 341 341 343 343 342 341 339 340 341 341 340 340 339 339 338 339 340 340 339 339 337 336 335 335 335 336 337 333 333 333 334 333 333 331 331 331 329 341 332 335 335 334 335 335
330 329 330 332 334 333 333 333 334 335 336 338 339 340 341 343 340 338 343 344 343 344 342 341 341 341 341 342 341 340 340 339 338 338 338 339 339 338 337 336 335 335 334 337 335 332 332 332 331 331 329 330 329 327 328 328 338 335 334 334 333 332 335
331 330 331 332 334 335 333 333 333 334 335 338 340 341 343 344 344 343 345 345 344 344 342 342 341 341 342 342 341 340 340 340 339 338 338 338 338 337 336 335 335 334 334 335 333 332 330 329 327 328 332 327 327 326 329 329 334 332 334 332 330 330 336
331 331 331 334 335 334 333 333 333 334 335 340 341 340 342 343 344 344 344 346 345 344 343 343 342 342 342 340 339 340 340 339 338 339 338 339 338 336 335 334 333 333 334 334 329 328 328 327 327 327 326 326 326 326 326 327 330 330 331 330 328 333 333
333 332 332 336 337 336 336 336 335 336 338 339 339 339 340 342 343 343 342 343 344 344 343 342 342 338 337 338 340 340 339 338 338 338 337 338 336 333 333 332 332 331 335 327 325 326 326 326 327 327 326 327 328 326 325 326 329 328 328 328 328 332 327
335 335 335 337 339 339 338 338 338 339 339 339 339 339 340 341 341 340 339 339 340 342 342 343 338 336 338 339 338 338 338 338 338 337 338 335 334 333 332 332 331 329 333 327 325 325 326 325 325 325 326 327 327 327 326 328 331 327 326 326 327 333 328
336 336 338 340 340 339 338 338 339 340 340 339 338 339 340 340 339 339 339 339 339 339 340 340 336 337 338 338 339 340 339 338 338 336 335 334 332 332 330 330 327 329 330 327 326 327 326 328 326 324 325 325 326 335 333 328 330 327 326 325 326 329 325
338 341 342 343 342 341 340 341 341 338 338 338 338 340 340 340 339 340 338 338 338 337 336 336 337 339 339 339 338 339 341 340 339 336 333 331 330 330 329 329 330 325 325 325 324 324 325 324 326 324 325 326 325 327 326 325 326 329 326 324 325 327 327
344 344 343 343 343 346 341 339 339 338 338 338 339 340 340 340 340 338 338 337 336 336 337 338 337 336 337 336 337 340 340 336 334 334 332 330 329 328 331 330 326 325 324 324 324 322 323 324 323 324 324 324 324 324 324 326 327 328 324 321 322 324 329
342 342 343 343 344 342 340 339 338 338 338 337 338 339 339 339 337 335 334 334 334 335 339 338 337 337 337 338 337 337 336 334 333 334 333 331 330 327 325 325 325 325 324 325 323 322 322 321 324 321 321 322 322 322 323 326 332 327 327 322 319 319 323
339 338 338 337 337 340 339 336 335 336 336 337 338 338 337 337 335 335 336 333 335 336 339 338 338 337 338 339 336 337 334 333 336 336 334 331 331 327 324 324 324 323 324 323 322 321 320 320 320 319 318 317 318 319 320 320 323 330 330 327 319 317 318
338 338 338 339 339 338 338 335 336 336 337 337 337 336 337 336 334 334 332 331 334 336 340 341 340 339 340 340 334 333 332 334 335 331 329 330 329 326 323 323 323 323 325 322 320 318 317 318 319 315 314 315 315 317 316 317 318 325 329 330 325 318 316
336 336 336 337 338 339 338 336 335 336 336 336 336 336 335 334 334 334 331 333 338 339 339 339 339 337 335 332 332 333 331 330 329 329 328 327 324 323 322 322 322 319 318 320 316 315 315 314 317 315 316 315 316 315 315 317 317 318 324 329 331 325 319
334 335 335 336 336 337 337 337 336 334 334 334 336 336 337 335 334 335 333 338 343 337 336 337 337 337 332 330 329 327 328 325 323 322 325 322 322 323 321 321 321 321 318 317 316 315 314 314 316 316 317 316 315 315 315 317 317 317 318 325 326 329 326
332 333 333 333 335 337 337 336 335 335 335 334 335 335 335 333 334 334 335 335 334 333 334 337 337 335 327 322 321 321 322 324 324 320 321 320 320 323 323 321 318 318 318 317 314 315 315 317 318 318 316 316 315 315 316 316 315 315 316 316 316 316 318
331 332 332 333 334 336 335 335 334 333 332 331 331 331 331 331 330 331 331 331 331 331 333 336 332 323 321 321 322 323 321 322 332 325 319 320 321 320 319 318 318 317 316 315 316 314 315 316 316 317 316 315 315 314 314 314 314 315 315 315 316 315 314
332 332 331 331 332 334 333 332 331 331 330 329 330 331 329 329 330 331 330 331 330 330 331 331 332 324 319 319 318 320 325 323 321 322 320 318 319 318 319 318 319 318 317 317 317 317 319 319 318 319 317 315 314 313 313 315 315 316 317 318 311 311 309
333 332 333 333 334 333 333 333 331 331 331 329 329 329 329 329 329 330 330 330 329 329 330 330 324 320 319 319 319 319 320 322 319 321 322 319 317 318 320 330 322 316 317 318 327 326 317 313 316 317 315 314 314 315 313 314 316 314 307 303 302 302 302
332 332 332 332 331 331 331 331 333 331 329 328 329 329 328 327 327 328 330 329 328 327 327 326 325 322 321 323 321 322 321 321 320 318 316 316 316 316 317 317 319 310 310 314 322 315 306 302 302 304 308 314 312 315 315 314 309 304 301 301 300 299 299
332 332 332 332 332 332 331 331 331 330 330 330 330 329 328 328 327 327 330 328 327 325 323 322 322 320 320 320 322 326 321 317 319 319 317 314 314 315 317 314 313 316 310 309 310 309 305 303 302 302 303 305 309 315 313 311 307 303 301 300 300 299 298
Wind_Speed
12 11 8 9 8 9 9 8 9 8 8 8 7 7 6 6 6 6 7 7 7 6 5 5 5 3 4 4 3 3 3 2 2 3 4 3 2 3 1 0 1 1 1 2 2 3 3 4 4 3 3 3 3 2 3 3 4 4 3 3 1 1 2
11 10 9 8 8 7 7 8 7 8 7 7 7 8 6 7 6 6 7 6 7 8 6 5 5 4 4 3 3 2 3 3 4 2 1 2 2 0 1 1 0 2 3 3 3 1 2 2 3 3 3 3 2 2 4 4 4 4 3 2 2 2 2
11 10 10 8 8 8 8 7 7 8 8 7 6 6 7 7 7 7 6 6 7 7 5 5 5 4 3 3 4 4 4 4 4 3 1 1 0 1 0 1 2 1 3 3 4 3 1 2 2 2 2 3 4 4 3 4 2 2 2 1 2 2 3
11 11 11 10 9 9 9 9 9 7 7 8 8 7 7 7 6 6 5 5 6 5 6 5 5 5 5 5 5 4 3 2 3 3 3 2 2 0 1 3 4 1 3 2 2 2 1 2 1 1 2 3 3 2 3 1 0 0 1 2 3 3 3
10 9 7 7 8 8 7 7 7 8 7 7 7 6 7 6 6 6 4 5 5 5 5 6 5 5 4 5 4 4 4 4 3 3 2 1 1 2 2 3 3 1 2 1 2 3 1 1 1 1 3 3 3 2 0 1 2 1 0 0 1 1 2
10 10 10 8 8 8 8 8 8 10 9 9 8 8 8 8 7 7 6 6 5 5 5 5 6 5 5 3 4 3 3 3 4 3 2 1 0 0 2 2 1 1 1 3 1 1 2 4 3 1 3 2 3 1 2 3 1 0 1 1 0 1 2
10 10 10 10 9 9 9 9 9 9 9 9 8 8 8 8 8 7 6 6 6 7 5 6 5 5 4 4 4 4 4 4 4 2 1 0 1 2 3 3 0 3 3 2 2 1 3 4 4 4 3 2 0 1 3 3 3 2 2 2 2 1 1
11 10 11 12 11 11 10 7 8 9 9 8 9 8 9 8 8 7 6 6 6 6 5 5 4 5 4 4 4 4 4 4 3 3 1 1 1 2 2 3 0 1 1 2 2 0 3 3 2 2 1 0 1 2 3 4 4 3 2 3 3 3 2
12 12 12 12 11 10 9 9 10 11 12 10 10 9 9 8 8 7 7 7 6 6 5 5 5 5 6 6 4 5 4 4 4 3 3 2 0 0 1 1 2 0 0 2 3 2 3 3 2 1 1 2 2 2 3 3 3 3 2 3 4 4 3
11 10 10 11 10 9 10 10 10 11 10 9 8 8 9 8 7 7 7 6 6 6 6 6 6 6 6 5 5 5 5 5 4 4 3 1 1 2 1 0 2 2 3 2 3 3 1 0 0 1 2 2 2 2 2 3 3 2 2 4 4 4 4
11 12 11 10 11 11 11 11 11 11 10 9 8 8 8 8 7 8 7 6 7 6 7 6 5 6 5 5 4 3 3 3 3 3 3 2 0 1 1 1 1 3 3 2 2 0 0 1 2 2 3 3 3 4 3 3 3 3 3 3 3 4 4
12 12 12 11 11 11 13 12 10 9 8 8 8 9 8 8 7 7 7 7 6 6 6 6 5 6 5 5 5 4 4 3 4 4 2 0 0 1 2 1 1 1 1 0 1 2 2 2 3 3 4 4 4 4 4 4 4 4 4 4 4 4 4
13 12 13 13 12 11 11 10 11 10 9 8 9 8 8 8 8 7 7 7 6 7 7 6 6 5 6 5 5 4 4 4 4 4 3 1 2 2 2 1 0 0 1 1 1 2 3 3 3 3 3 4 3 4 4 4 4 5 5 5 5 5 5
14 13 11 9 10 13 14 13 11 11 9 9 9 9 9 9 10 9 9 9 8 7 7 6 7 6 6 5 5 4 4 5 4 3 2 3 2 1 0 1 2 2 2 2 3 3 3 3 4 4 3 4 4 4 4 4 4 5 5 6 6 5 6
15 15 13 11 12 13 13 13 11 11 10 10 11 12 11 10 9 7 6 8 8 8 8 8 8 7 6 5 5 5 5 4 3 3 3 2 2 0 1 1 2 2 3 2 3 2 3 3 3 4 5 5 4 5 4 4 5 5 5 5 5 4 6
11 11 13 13 13 14 13 13 12 12 11 12 13 13 12 10 9 8 8 8 8 8 8 7 7 7 5 5 5 4 4 4 4 4 4 3 1 1 1 2 3 3 3 3 3 3 3 3 3 3 3 4 5 4 4 4 4 6 10 7 3 3 3
11 10 11 11 12 12 12 12 11 11 12 13 13 14 13 12 11 8 8 9 8 9 8 8 7 6 7 7 5 6 6 5 4 4 4 3 2 1 2 3 2 2 2 2 2 3 3 2 3 3 3 4 4 4 4 4 4 8 5 4 8 5 3
10 7 7 9 11 12 11 12 10 9 9 10 13 14 12 11 9 8 8 9 10 8 7 7 8 8 7 6 5 5 6 5 4 4 3 3 3 3 2 2 1 2 2 3 3 3 3 4 4 4 5 5 5 4 5 4 6 3 3 5 6 7 4
8 7 7 10 12 12 11 11 10 12 11 9 8 9 10 11 10 9 9 9 9 8 9 9 8 7 6 5 5 5 5 4 4 4 3 3 3 2 1 0 1 2 2 2 2 2 3 4 4 4 4 4 4 4 3 3 3 4 6 6 7 8 7
8 8 7 9 10 12 12 11 10 11 13 12 11 9 7 9 12 11 11 11 10 10 9 8 7 7 7 6 5 5 5 4 4 4 4 3 1 1 0 0 0 1 1 1 2 3 3 3 3 3 3 3 3 3 3 3 5 7 8 8 8 8 7
9 9 9 11 12 13 13 14 12 10 7 7 7 7 8 6 7 8 8 8 10 9 8 7 7 7 7 7 5 4 4 3 4 4 3 1 0 0 0 1 0 1 1 1 1 1 2 3 3 3 2 3 3 3 4 4 8 9 9 9 8 8 7
8 10 11 12 15 15 14 14 14 13 12 8 6 6 8 10 7 8 8 7 8 7 8 8 8 7 3 4 4 2 2 4 3 2 4 1 1 2 2 1 1 1 1 1 1 1 1 2 2 3 3 4 3 3 4 5 9 10 9 8 8 8 4
9 9 11 13 16 16 15 14 13 13 10 8 8 8 8 7 8 8 7 7 6 6 5 5 5 9 6 5 3 3 8 8 3 3 4 2 2 3 2 1 1 1 0 1 1 2 3 3 4 3 4 4 4 4 5 5 8 10 9 8 9 6 5
7 9 11 12 12 13 11 11 10 10 10 10 9 9 7 6 5 5 5 4 4 5 5 7 9 9 8 5 6 5 3 1 5 1 3 3 3 2 1 1 1 1 1 2 3 4 4 4 4 4 4 4 5 5 4 5 7 10 9 8 8 7 4
8 9 12 14 15 13 12 11 12 10 7 8 9 7 5 6 6 7 6 5 5 5 6 8 8 8 6 5 3 3 6 6 5 3 3 4 2 2 2 2 2 2 1 2 2 3 4 3 4 4 5 4 4 7 5 4 6 8 7 6 6 4 3
10 10 10 10 12 14 11 9 7 6 8 9 9 4 5 6 6 5 5 5 5 6 7 7 7 6 6 5 3 4 4 3 3 4 4 3 1 2 3 3 1 3 3 4 3 4 4 4 4 4 5 4 3 4 3 3 4 4 6 5 5 4 2
9 12 12 11 10 9 8 6 8 10 8 5 4 5 5 6 7 6 4 5 6 6 6 6 7 8 7 7 5 5 5 5 4 4 3 2 2 3 3 2 3 3 3 4 4 3 5 4 4 4 4 4 3 3 3 3 4 4 4 6 5 5 4
13 11 9 9 10 9 8 7 6 6 4 2 3 4 4 5 5 5 5 6 6 5 5 6 6 6 4 3 4 5 5 4 4 3 2 3 3 2 3 3 2 2 3 3 4 4 4 4 3 3 3 3 3 4 4 5 7 5 5 7 8 8 8
14 13 12 11 8 6 10 9 8 6 5 3 3 3 3 5 5 5 5 6 4 3 4 5 4 4 4 4 5 5 4 3 3 2 2 3 2 0 3 3 4 3 2 1 3 3 3 3 3 2 3 4 6 5 5 5 6 8 5 8 10 10 9
11 11 10 8 9 8 9 10 8 7 4 3 3 3 4 5 5 4 4 4 3 2 2 3 3 4 4 4 4 3 3 1 0 0 1 2 3 3 3 3 1 2 4 4 3 2 2 3 3 3 4 5 7 7 7 6 6 7 9 7 11 12 11
11 11 11 11 9 7 7 10 10 7 5 3 3 2 3 3 5 4 3 3 3 4 3 3 4 4 4 3 3 1 0 2 2 1 1 3 3 4 4 4 4 4 2 2 1 1 2 4 3 4 5 6 7 7 7 7 6 6 7 10 10 11 12
10 10 11 11 10 9 10 10 10 9 8 4 3 2 1 2 3 4 4 3 4 4 4 4 4 3 2 4 5 4 4 4 5 5 5 5 4 4 4 4 3 3 2 1 2 2 4 6 5 6 6 6 7 7 7 7 6 6 6 6 7 7 9
9 10 12 12 10 11 12 12 11 10 9 8 5 5 4 4 3 4 4 5 5 5 5 5 5 6 6 6 7 6 6 6 5 5 4 3 3 3 3 4 3 3 4 3 5 4 5 5 5 6 6 7 7 7 7 7 7 7 7 6 6 6 7
11 10 8 9 9 11 10 11 11 9 8 7 5 5 6 6 6 5 6 7 7 7 7 7 7 7 6 6 5 6 5 5 6 5 4 4 4 5 5 4 3 4 4 5 5 5 6 6 6 6 6 7 7 7 7 7 7 7 7 7 6 7 7
9 10 10 10 7 9 11 11 11 9 9 7 5 6 6 6 5 7 8 7 6 7 7 7 7 6 5 5 5 4 3 4 3 3 5 4 4 3 1 2 4 4 6 5 3 4 4 6 6 6 6 5 6 6 7 7 7 7 6 6 8 7 7
9 10 8 7 8 9 10 10 11 11 9 6 6 7 6 5 6 5 6 6 5 6 7 6 6 5 5 4 4 3 4 5 5 5 4 4 3 4 4 5 6 1 2 5 10 13 10 3 4 6 5 6 7 6 6 7 8 10 13 13 13 13 12
11 9 9 10 11 10 10 10 10 10 9 7 6 6 5 5 5 5 5 5 4 5 5 5 5 4 4 3 2 2 3 4 5 3 3 2 2 2 2 4 8 12 11 6 9 10 12 12 10 11 9 7 6 8 10 10 12 13 12 12 13 13 14
9 10 10 9 11 11 11 10 9 9 8 6 6 6 6 5 4 4 3 3 3 4 4 4 4 4 4 3 1 3 4 4 3 2 2 3 2 2 2 3 5 8 12 13 8 10 12 11 12 13 14 11 9 7 6 8 9 11 13 14 14 14 14
Wind_Direction
144 152 157 157 165 165 157 157 152 155 158 157 155 155 157 156 141 140 147 148 147 147 154 154 163 165 182 199 203 206 212 225 157 195 169 187 146 118 128 209 58 348 255 252 6 16 70 88 85 108 104 104 103 105 84 61 50 43 48 22 3 339 310
151 158 161 167 163 159 154 155 153 151 154 155 154 155 151 144 143 147 153 149 151 159 166 168 166 177 185 201 209 168 193 196 170 158 102 74 37 83 189 160 163 313 338 351 123 96 104 71 101 105 100 89 109 81 67 70 74 67 56 30 44 14 4
154 161 163 167 165 161 157 156 156 155 155 153 156 151 147 149 155 152 152 145 145 156 159 158 166 166 162 157 142 165 176 127 84 83 99 118 248 233 310 39 302 9 331 49 104 129 126 94 64 104 99 77 54 50 72 69 69 77 43 35 25 353 344
157 163 169 170 166 163 167 162 157 156 156 158 162 156 146 149 148 149 146 145 142 146 150 147 149 143 151 137 128 131 111 116 134 128 141 153 175 190 12 356 324 33 75 67 123 131 114 98 62 39 86 68 57 68 61 72 37 15 17 13 351 328 319
159 150 146 157 161 160 168 163 156 158 158 161 160 152 150 143 138 137 134 134 136 142 143 146 143 151 131 125 135 137 141 143 136 136 131 165 51 25 2 322 11 82 150 195 135 110 137 95 22 311 40 83 117 113 153 264 228 214 29 101 356 329 334
154 154 159 162 165 169 170 170 163 165 163 159 154 150 151 144 138 137 136 134 135 121 122 129 139 139 140 138 147 164 141 152 144 153 135 116 128 10 346 2 321 305 156 187 157 147 95 69 55 48 117 119 124 174 241 236 274 327 298 295 239 258 322
158 159 161 163 167 171 175 174 166 166 159 151 145 149 141 139 141 135 133 137 135 127 137 141 141 142 153 148 163 149 147 151 130 113 149 17 46 30 347 315 25 130 195 148 155 197 84 119 113 110 132 150 214 227 256 289 279 279 253 242 252 272 263
159 161 166 165 168 171 175 162 154 151 145 139 141 139 134 136 129 131 136 145 136 125 156 135 142 146 153 143 141 155 169 156 139 150 125 101 45 56 336 328 343 184 142 138 227 102 121 129 139 136 152 184 275 284 303 292 271 256 211 234 237 265 255
164 163 165 167 164 166 157 151 148 147 145 145 143 139 134 134 137 141 144 145 144 139 163 146 153 145 143 140 155 167 158 139 156 163 142 123 280 5 261 308 306 305 93 359 4 60 133 157 143 196 221 238 255 276 289 276 287 302 251 250 237 242 251
161 164 166 162 159 150 146 147 143 141 141 138 136 136 139 139 137 140 145 151 147 141 149 149 151 148 140 137 144 149 147 152 162 154 150 167 238 251 316 318 185 142 108 104 86 61 20 140 200 229 215 236 264 261 263 293 291 292 268 258 259 257 257
163 165 165 161 157 148 145 145 147 149 148 146 142 140 140 142 143 146 152 152 158 154 157 154 152 145 145 138 139 134 123 137 138 147 166 181 268 343 309 62 50 74 96 89 61 27 2 314 301 303 319 301 300 298 294 285 270 269 279 273 261 259 267
164 164 167 163 155 146 152 153 150 147 147 146 141 147 148 149 150 153 154 166 163 154 160 156 149 142 139 143 139 138 137 148 146 171 191 184 12 92 79 114 77 59 5 61 15 331 327 318 313 309 309 313 305 307 297 295 289 282 275 276 273 270 268
168 169 168 165 156 149 146 148 153 153 149 141 144 149 151 153 159 159 161 168 166 163 158 158 148 149 144 155 157 152 159 165 170 188 184 157 148 169 155 134 166 80 312 234 260 294 308 307 315 304 302 294 294 288 284 283 285 282 277 272 269 266 269
166 167 167 149 148 151 154 155 153 150 143 135 144 150 154 165 170 168 168 168 166 161 157 160 153 161 162 158 165 168 179 182 190 181 169 159 160 153 74 7 344 314 302 322 319 305 293 295 292 287 291 282 282 279 281 285 288 284 278 271 267 272 270
172 168 165 151 153 153 152 154 157 151 140 141 147 157 165 170 177 168 169 161 162 161 168 166 163 167 172 167 166 190 190 182 166 164 146 144 139 77 354 313 295 299 303 308 302 292 281 281 292 305 309 308 306 304 298 291 279 276 271 279 294 275 271
178 169 166 157 155 155 156 155 156 152 144 150 156 163 168 172 175 172 164 164 164 166 174 162 169 168 173 172 183 188 189 176 162 153 147 140 163 205 239 282 298 303 304 299 291 288 300 312 316 314 297 297 299 296 300 292 290 283 308 334 315 291 294
183 178 168 153 151 152 154 154 153 152 154 158 164 167 172 176 177 168 161 162 168 174 177 169 168 176 175 183 185 180 177 169 165 157 162 181 184 222 263 274 285 295 295 308 320 320 310 325 330 317 309 308 306 310 307 302 296 352 3 358 4 4 341
183 167 152 147 150 148 149 149 151 152 159 169 171 172 171 176 173 155 164 170 176 179 170 173 174 177 182 184 169 166 169 171 169 164 179 170 193 216 233 253 312 333 346 347 342 328 348 348 330 328 326 323 322 321 319 319 357 360 345 353 326 333 316
165 147 146 150 149 149 141 137 145 158 165 159 166 177 181 167 161 170 170 173 180 173 174 179 176 176 181 184 172 168 170 167 166 177 179 190 193 206 228 337 349 351 351 317 286 335 350 331 340 323 324 335 337 333 329 332 309 328 326 317 322 309 313
158 147 138 142 139 132 134 145 160 169 170 172 173 168 161 170 172 176 175 173 175 178 182 174 176 173 178 175 178 168 171 167 167 177 186 173 181 194 217 69 247 249 254 300 3 7 346 338 328 327 333 332 323 309 301 302 291 302 307 313 310 303 294
151 154 139 131 129 138 148 158 167 168 170 174 169 144 144 176 175 172 172 168 176 181 175 176 169 175 177 178 172 161 150 157 169 176 163 116 284 128 124 156 251 3 3 41 1 338 309 309 324 309 300 293 282 284 296 283 292 298 301 309 310 307 301
154 144 138 140 140 148 155 166 168 171 181 186 162 169 171 173 169 163 178 174 171 175 175 174 177 175 120 48 20 35 127 147 169 146 90 89 189 113 104 96 81 66 38 56 349 318 322 305 272 260 270 270 270 281 289 291 293 294 297 305 309 309 307
153 144 135 142 148 159 167 167 167 177 175 181 183 175 190 177 172 169 168 171 174 160 156 150 104 65 67 160 124 32 9 346 313 130 109 219 132 110 107 91 60 36 173 328 297 280 278 257 254 254 265 275 277 281 286 289 293 301 306 308 308 312 298
132 134 132 136 148 153 161 169 169 173 173 179 191 192 179 173 166 155 149 134 127 131 123 118 113 139 159 123 106 139 140 194 283 278 153 135 114 120 94 117 173 229 224 227 264 274 258 253 263 271 264 268 283 278 281 291 304 313 314 310 304 303 288
131 128 134 139 148 156 162 170 170 170 173 172 187 193 168 158 150 147 149 144 140 126 121 125 130 142 146 122 116 136 167 176 197 185 129 107 133 145 150 176 195 232 234 252 250 261 268 273 266 277 283 275 272 294 306 305 302 301 307 305 299 293 280
118 117 121 134 147 156 154 145 132 145 164 182 190 162 147 146 143 142 141 147 127 114 109 119 129 120 108 115 168 207 137 165 159 125 120 133 140 170 188 204 202 245 249 263 247 264 272 271 271 271 278 293 319 305 290 279 282 281 295 284 278 277 252
113 124 128 127 127 124 125 136 150 159 169 166 144 137 139 140 143 151 136 109 97 97 103 108 113 119 140 162 185 182 153 153 139 143 157 163 184 200 207 213 230 262 269 275 300 298 285 276 277 289 299 316 301 286 279 264 280 286 268 260 254 249 240
101 93 93 105 116 117 111 107 101 96 84 81 114 123 138 137 123 101 96 99 105 115 125 128 136 149 149 156 172 140 132 148 166 153 162 207 197 209 265 275 281 286 316 327 306 299 299 309 320 323 307 296 289 279 282 289 294 287 266 249 243 240 235
114 119 122 116 101 105 118 114 111 110 113 97 78 63 53 84 96 99 97 109 133 135 140 151 134 133 165 160 131 129 148 171 161 169 184 227 229 225 309 322 350 338 320 330 14 15 356 339 325 315 303 300 295 291 291 292 294 292 282 255 249 247 238
99 102 100 97 109 118 113 108 106 107 99 79 73 83 92 103 106 107 118 149 158 162 148 125 150 177 142 118 112 132 179 173 194 86 250 275 25 33 6 2 32 62 47 56 68 58 4 311 301 309 309 305 300 302 301 300 298 296 295 278 259 255 248
111 111 110 110 110 112 113 120 125 121 107 91 90 77 85 97 123 142 142 187 158 169 168 154 138 106 98 122 155 164 198 18 4 341 356 48 64 62 80 71 63 48 5 53 56 54 354 307 307 308 302 307 303 301 302 298 298 292 289 289 289 267 253
98 98 101 104 109 116 118 117 117 121 122 114 109 97 123 168 159 140 163 159 133 129 126 112 102 108 86 60 49 46 52 42 20 36 58 58 63 99 101 107 81 58 359 20 354 335 331 313 314 309 309 303 299 298 294 294 294 291 290 294 294 290 278
103 109 114 112 120 119 117 120 121 125 129 131 155 154 147 137 127 116 118 106 104 93 79 69 59 55 67 68 57 48 53 62 66 59 53 70 74 78 80 68 67 43 6 351 346 335 328 319 312 308 304 301 302 301 300 295 291 289 293 289 294 294 297
112 107 101 109 114 110 109 110 113 112 106 98 85 75 67 62 63 67 71 67 69 71 65 62 68 77 76 69 60 57 53 54 55 62 44 29 43 54 38 25 37 23 349 333 321 327 316 311 304 296 292 295 293 295 296 294 290 289 286 291 302 307 306
112 112 113 105 102 106 112 115 109 105 99 94 89 86 82 76 71 70 72 70 70 71 71 68 79 90 82 73 70 57 54 61 57 46 44 30 36 27 58 50 7 355 329 309 280 256 280 298 291 280 278 271 269 270 283 284 288 276 277 305 305 297 305
114 112 105 103 103 104 105 106 109 106 102 100 95 89 85 78 73 69 72 74 71 76 77 83 90 88 87 78 76 64 54 42 39 45 47 51 43 26 347 333 337 307 305 304 314 316 315 237 239 268 289 285 271 238 235 261 269 295 316 309 307 308 303
121 116 115 117 109 105 105 107 107 106 105 110 107 101 98 88 78 70 67 75 78 84 93 94 96 100 107 102 108 130 91 69 56 52 55 39 48 20 11 337 330 329 327 310 300 304 302 304 279 269 254 223 273 279 270 272 284 297 295 304 306 304 300
111 117 120 116 116 116 112 112 111 114 120 118 111 106 98 93 89 104 99 96 92 92 102 113 114 134 141 156 165 82 89 91 87 57 37 358 342 344 340 331 326 324 318 323 318 309 307 295 291 293 299 290 254 255 307 315 316 308 307 304 303 299 298